CZ-6A DEB, 54397

Orbit data source: Space-Track

CZ-6A DEB, 54397 is space debris in SSO originally from a launch on Fri, 11 Nov 2022 UTC launched from the Taiyaun Space Center, China (TSC). Debris objects in space refer to the collection of defunct objects orbiting the Earth. Examples of debris include non-operational satellites, rocket bodies, and fragments generated from explosions, collisions, or faulty payload assembly.

Loading next visibility...
Identifier
54397, 2022-151DV
Orbit
SSO
Country
Flag of CNCN / PRC
Related business
Manufacturer
SAST
Mission
Spacecraft
Bus & Motor
Unknown
Mass
Unknown
Launch date (UTC)
2022-11-11 (4 years ago)
Launch vehicle
Unknown
Launch site
Taiyaun Space Center, China (TSC)
Object type
Payload
Rocket body
Debris
Shape & HBR
Unknown shape, 0.2 m
Radar Cross Section
Medium (>0.1 m² and <1 m²)

Expand to show TLE details & history
Last TLE update: 2 days ago

TLE from 2 days ago
0 CZ-6A DEB
1 54397U 22151DV  26171.26839619  .00177988  00000-0  32779-2 0  9990
2 54397  98.4463 277.2015 0023092 340.8083  19.2292 15.48221914194501
Epoch: 2026-06-20T06:26Z
TLE epoch observation values (Epoch: 2026-06-20T06:26:29.430Z)
Latitude
-0.00004°
Longitude
-87.90658°
Altitude
410.198 km
Speed
7.673 km/s
True Right ascension
18h 28m 48s
True Declination
0° 00' 00"
Sunlit
Object was in full shadow at epoch
Visualization orbit readout
Latitude
Unknown
Longitude
Unknown
Altitude
Unknown
Speed
Unknown
Apparent Right ascension
Unknown
Apparent Declination
Unknown
Sunlit
N/A
Visualization observer readout
Local Sidereal Time
21:25:22
Azimuth
Unknown
Elevation
Unknown
Doppler factor
Unknown
Orbital elements
Apogee altitude
434.6 km
Perigee altitude
403.208 km
Semi-major axis
6,797.041 km
Eccentricity
0.00231
Inclination
98.4463°
RAAN
277.2015°
Arg. of periapsis
340.8083°
True anomaly
19.31659°
Mean anomaly
19.2292°
Eccentric anomaly
19.27287°
Mean motion
3.87314 °/min
Orbital period
92.95 mins
BSTAR
0.0032779
Loading maneuver chart data...
Computing Atmospheric mass density...
Loading historical data...
Loading historical data...
Loading historical data...
Loading historical data...
Loading historical data...
Loading historical data...
Loading historical data...

Documentation

Showing up to 5 results
|